Powrót do katalogu

STARLINK-36914

AktywnyŁącznośćVLEO
NORAD 67942·PAYLOAD·🇺🇸 United States

Wystrzelony Feb 24, 2026 z Vandenberg Space Force Base

Loading…

Następne Przeloty (najbliższe 24 godziny)

TLE

ŚwieżeSource: CelesTrak SupGP

Epoka: Sep 14, 2026, 21:29 UTC

1 67942C 26037L   26257.89562500  .00010393  00000+0  37618-3 0  2573
2 67942  42.9997 202.2124 0000953 244.7377 231.8473 15.27597276    14

Śledź STARLINK-36914 w czasie rzeczywistym z AllMySat

Download on the App Store